Weather History for Sheridan, WY

Change the Weather History Date:

Wednesday, January 11, 2012

  Actual Average Record
Temperature  
Mean Temperature 14 °F 24 °F  
Max Temperature 24 °F 36 °F 69 °F (1953)
Min Temperature 4 °F 11 °F -31 °F (1997)
Degree Days  
Heating Degree Days 51 41  
Month to date heating degree days 358 460  
Since 1 July heating degree days 3195 3643  
Cooling Degree Days 0 0  
Month to date cooling degree days 0 0  
Year to date cooling degree days 0 0  
Moisture  
Dew Point 8 °F    
Average Humidity 66    
Maximum Humidity 88    
Minimum Humidity 43    
Precipitation  
Precipitation 0.01 in 0.01 in 0.55 in (2000)
Month to date precipitation 0.07 0.18  
Year to date precipitation 0.07 0.18  
Sea Level Pressure  
Sea Level Pressure 30.34 in    
Wind  
Wind Speed 16 mph (NW)    
Max Wind Speed 32 mph    
Max Gust Speed 38 mph    
Visibility 6 miles    
Events Snow    
T = Trace of Precipitation, MM = Missing Value Source: NWS Daily Summary

Daily Weather History Graph

Daily Weather History Graph

Search for Another Location

Airport:

Trip Planner

Search our weather history database for the weather conditions in past years. The results will help you decide how hot, cold, wet, or windy it might be!

Date:

Astronomy

Jan. 11, 2012 Rise Set
Actual Time 7:43 AM MST 4:47 PM MST
Civil Twilight 7:10 AM MST 5:20 PM MST
Nautical Twilight 6:34 AM MST 5:57 PM MST
Astronomical Twilight 5:59 AM MST 6:32 PM MST
Moon 7:58 PM MST (1/11) 8:49 AM MST (1/11)
Length of Visible Light 10h 09m
Length of Day
9h 04m
Waning Gibbous, 93% of the Moon is Illuminated
Jan 11
Waning Gibbous
Jan 16
Last Quarter
Jan 23
New
Jan 30
First Quarter
Feb 7
Full

Hourly Weather History & Observations

Time (MST) Temp. Windchill Dew Point Humidity Pressure Visibility Wind Dir Wind Speed Gust Speed Precip Events Conditions
12:18 AM 23.0 °F 6.3 °F 19.4 °F 86% 30.15 in 1.8 mi NW 26.5 mph 32.2 mph 0.00 in Snow Light Snow
12:30 AM 23.0 °F 6.3 °F 19.4 °F 86% 30.16 in 2.5 mi NW 26.5 mph 33.4 mph 0.00 in Snow Light Snow
12:40 AM 23.0 °F 6.9 °F 19.4 °F 86% 30.16 in 4.0 mi NW 24.2 mph 34.5 mph 0.00 in Snow Light Snow
12:53 AM 23.0 °F 8.3 °F 19.0 °F 85% 30.26 in 2.5 mi WNW 19.6 mph 29.9 mph 0.00 in Snow Light Snow
1:02 AM 23.0 °F 6.3 °F 19.4 °F 86% 30.17 in 1.5 mi NW 26.5 mph 32.2 mph 0.00 in Snow Light Snow
1:25 AM 21.2 °F 2.7 °F 17.6 °F 86% 30.18 in 1.8 mi NW 31.1 mph - 0.00 in Snow Light Snow
1:27 AM 21.2 °F 3.3 °F 17.6 °F 86% 30.18 in 2.0 mi NW 28.8 mph 35.7 mph 0.00 in Snow Light Snow
1:40 AM 21.2 °F 2.7 °F 17.6 °F 86% 30.19 in 7.0 mi NW 31.1 mph 36.8 mph 0.00 in Snow Light Snow
1:53 AM 19.9 °F 2.5 °F 16.0 °F 85% 30.31 in 10.0 mi NW 25.3 mph 33.4 mph 0.00 in   Overcast
2:38 AM 19.4 °F 1.4 °F 14.0 °F 80% 30.24 in 2.0 mi NW 26.5 mph 38.0 mph 0.00 in Snow Light Snow
2:53 AM 18.0 °F -1.1 °F 14.0 °F 84% 30.36 in 1.5 mi NW 28.8 mph 34.5 mph 0.00 in Snow Light Snow
3:07 AM 17.6 °F -0.3 °F 12.2 °F 79% 30.26 in 1.8 mi NW 24.2 mph 32.2 mph 0.00 in Snow Light Snow
3:36 AM 17.6 °F -0.3 °F 12.2 °F 79% 30.27 in 2.5 mi NW 24.2 mph - 0.00 in Snow Light Snow
3:45 AM 15.8 °F -1.9 °F 10.4 °F 79% 30.27 in 3.0 mi NW 21.9 mph 32.2 mph 0.00 in Snow Light Snow
3:53 AM 15.8 °F -1.5 °F 10.4 °F 79% 30.28 in 5.0 mi NW 20.7 mph - N/A Snow Light Snow
4:38 AM 17.6 °F 1.3 °F 12.2 °F 79% 30.29 in 2.0 mi NW 19.6 mph - 0.00 in Snow Light Snow
4:45 AM 17.6 °F 0.1 °F 12.2 °F 79% 30.29 in 0.8 mi NNW 23.0 mph - 0.00 in Snow Light Snow
4:49 AM 15.8 °F -1.1 °F 12.2 °F 86% 30.29 in 0.8 mi NNW 19.6 mph - 0.01 in Snow Light Snow
4:53 AM 16.0 °F -2.1 °F 12.0 °F 84% 30.43 in 0.8 mi NW 23.0 mph 26.5 mph 0.01 in Snow Light Snow
4:57 AM 15.8 °F -1.5 °F 10.4 °F 79% 30.29 in 2.0 mi NW 20.7 mph 26.5 mph 0.00 in Snow Light Snow
5:03 AM 15.8 °F -0.2 °F 10.4 °F 79% 30.29 in 8.0 mi NW 17.3 mph - 0.00 in Snow Light Snow
5:11 AM 15.8 °F 0.9 °F 8.6 °F 73% 30.29 in 10.0 mi NW 15.0 mph - 0.00 in   Mostly Cloudy
5:39 AM 14.0 °F 0.5 °F 10.4 °F 86% 30.30 in 5.0 mi NW 11.5 mph - 0.00 in Snow Light Snow
5:53 AM 14.0 °F -0.2 °F 9.0 °F 80% 30.45 in 8.0 mi NW 12.7 mph - 0.00 in Snow Light Snow
6:29 AM 15.8 °F -0.2 °F 10.4 °F 79% 30.30 in 8.0 mi NW 17.3 mph - 0.00 in   Overcast
6:53 AM 15.1 °F -1.6 °F 8.1 °F 74% 30.45 in 7.0 mi NW 18.4 mph 28.8 mph 0.00 in   Overcast
7:53 AM 15.1 °F -3.7 °F 3.9 °F 61% 30.47 in 10.0 mi NW 24.2 mph - N/A   Mostly Cloudy
8:53 AM 12.9 °F -5.7 °F 3.0 °F 65% 30.48 in 10.0 mi NW 21.9 mph - N/A   Mostly Cloudy
9:53 AM 14.0 °F -5.5 °F 1.0 °F 56% 30.50 in 10.0 mi NW 25.3 mph 33.4 mph N/A   Overcast
10:53 AM 15.1 °F -2.5 °F 1.0 °F 54% 30.48 in 10.0 mi WNW 20.7 mph 28.8 mph N/A   Overcast
11:53 AM 17.1 °F -1.7 °F -2.0 °F 43% 30.46 in 10.0 mi NW 26.5 mph 31.1 mph N/A   Overcast
12:53 PM 17.1 °F 1.0 °F -2.0 °F 43% 30.45 in 10.0 mi NW 18.4 mph - N/A   Mostly Cloudy
1:53 PM 17.1 °F -0.3 °F -0.0 °F 47% 30.43 in 10.0 mi NW 21.9 mph - N/A   Clear
2:53 PM 17.1 °F -0.3 °F -0.9 °F 45% 30.44 in 10.0 mi NNW 21.9 mph 27.6 mph N/A   Clear
3:53 PM 16.0 °F 1.1 °F -0.0 °F 49% 30.44 in 10.0 mi NNW 15.0 mph - N/A   Clear
4:53 PM 10.9 °F -2.6 °F -0.9 °F 59% 30.44 in 10.0 mi North 10.4 mph - N/A   Clear
5:53 PM 7.0 °F 0.1 °F -2.0 °F 67% 30.45 in 10.0 mi NNW 3.5 mph - N/A   Clear
6:53 PM 8.1 °F 1.4 °F -2.0 °F 64% 30.44 in 10.0 mi SW 3.5 mph - N/A   Clear
7:53 PM 7.0 °F 0.1 °F -2.0 °F 67% 30.44 in 10.0 mi SW 3.5 mph - N/A   Clear
8:53 PM 9.0 °F -4.2 °F -0.9 °F 64% 30.42 in 10.0 mi West 9.2 mph - N/A   Clear
9:53 PM 8.1 °F 1.4 °F -2.0 °F 64% 30.41 in 10.0 mi NNW 3.5 mph - N/A   Clear
10:53 PM 8.1 °F -4.3 °F -0.9 °F 67% 30.40 in 10.0 mi SW 8.1 mph - N/A   Clear
11:53 PM 10.9 °F 2.9 °F 1.9 °F 67% 30.38 in 10.0 mi SW 4.6 mph - N/A   Scattered Clouds